Weather History for Ouarzazate, Morocco

Change the Weather History Date:

Tuesday, June 25, 2013

  Actual Average Record
Temperature  
Mean Temperature 90 °F -  
Max Temperature 102 °F 99 °F - ()
Min Temperature 78 °F 69 °F - ()
Cooling Degree Days 25    
Growing Degree Days 40 (Base 50)    
Moisture  
Dew Point 30 °F    
Average Humidity 10    
Maximum Humidity 26    
Minimum Humidity 4    
Precipitation  
Precipitation 0.00 in 0.00 in - ()
Sea Level Pressure  
Sea Level Pressure 30.08 in    
Wind  
Wind Speed 6 mph ()    
Max Wind Speed 20 mph    
Max Gust Speed -    
Visibility 6.8 miles    
Events      
T = Trace of Precipitation, MM = Missing Value Source: Averaged Metar Reports

Daily Weather History Graph

Daily Weather History Graph

Search for Another Location

Airport:

Trip Planner

Search our weather history database for the weather conditions in past years. The results will help you decide how hot, cold, wet, or windy it might be!

Date:

Astronomy

Jun. 25, 2013 Rise Set
Actual Time 6:25 AM WEST 8:34 PM WEST
Civil Twilight 5:57 AM WEST 9:02 PM WEST
Nautical Twilight 5:24 AM WEST 9:36 PM WEST
Astronomical Twilight 4:47 AM WEST 10:12 PM WEST
Moon 10:23 PM WEST (6/25) 8:39 AM WEST (6/25)
Length of Visible Light 15h 04m
Length of Day
14h 09m
Waning Gibbous, 94% of the Moon is Illuminated
Jun 25
Waning Gibbous
Jun 30
Last Quarter
Jul 8
New
Jul 16
First Quarter
Jul 22
Full

Hourly Weather History & Observations

Time (WEST) Temp. Dew Point Humidity Pressure Visibility Wind Dir Wind Speed Gust Speed Precip Events Conditions
12:00 AM 89.6 °F 32.0 °F 13% 30.06 in - West 9.2 mph - N/A   Clear
1:00 AM 88 °F 33 °F 7%  in 6 mi SW 6.9 mph - -  
1:00 AM 87.8 °F 33.8 °F 15% 30.06 in - SW 6.9 mph - N/A   Clear
2:00 AM 87.8 °F 32.0 °F 14% 30.06 in - Variable 2.3 mph - N/A   Clear
3:00 AM 86.0 °F 33.8 °F 15% 30.06 in - Variable 3.5 mph - N/A   Clear
4:00 AM 82 °F 25 °F 6%  in 6 mi North 3.5 mph - -  
4:00 AM 82.4 °F 24.8 °F 12% 30.09 in - Variable 2.3 mph - N/A   Clear
5:00 AM 80.6 °F 24.8 °F 13% 30.09 in - Variable 2.3 mph - N/A   Clear
6:00 AM 78.8 °F 41.0 °F 26% 30.09 in - Variable 3.5 mph - N/A   Clear
7:00 AM 78 °F 24 °F 6%  in 6 mi ENE 3.5 mph - -  
7:00 AM - - N/A% 30.09 in - Variable 2.3 mph - N/A   Unknown
8:00 AM 80.6 °F 26.6 °F 14% 30.12 in - Variable 2.3 mph - N/A   Clear
9:00 AM 84.2 °F 30.2 °F 14% 30.12 in - East 4.6 mph - N/A   Clear
10:00 AM 91 °F 29 °F 5%  in 6 mi ENE 10.4 mph - -  
10:00 AM 91.4 °F 30.2 °F 11% 30.12 in - ENE 10.4 mph - N/A   Clear
11:00 AM 93.2 °F 28.4 °F 10% 30.12 in - Variable 3.5 mph - N/A   Clear
12:00 PM 95.0 °F 30.2 °F 10% 30.12 in - Variable 3.5 mph - N/A   Clear
1:00 PM 97 °F 31 °F 4%  in 6 mi East 3.5 mph - -  
1:00 PM 96.8 °F 32.0 °F 10% 30.12 in - Variable 3.5 mph - N/A   Clear
2:00 PM 98.6 °F 30.2 °F 9% 30.09 in - Variable 4.6 mph - N/A   Clear
3:00 PM 100.4 °F 28.4 °F 8% 30.09 in 6.2 mi SE 5.8 mph - N/A   Partly Cloudy
4:00 PM 101 °F 24 °F 4%  in 6 mi NE 4.6 mph - -   Scattered Clouds
4:00 PM 100.4 °F 24.8 °F 7% 30.06 in 6.2 mi NE 4.6 mph - N/A   Partly Cloudy
5:00 PM 100.4 °F 24.8 °F 7% 30.04 in 6.2 mi SW 5.8 mph - N/A   Partly Cloudy
6:00 PM 102.2 °F 26.6 °F 7% 30.04 in 6.2 mi SSE 5.8 mph - N/A   Partly Cloudy
7:00 PM 102 °F 33 °F 4%  in 12 mi NW 18.4 mph - -   Scattered Clouds
7:00 PM 102.2 °F 32.0 °F 9% 30.04 in 6.2 mi NW 18.4 mph - N/A   Partly Cloudy
8:00 PM 98.6 °F 33.8 °F 10% 30.04 in 6.2 mi NNW 18.4 mph - N/A   Scattered Clouds
9:00 PM 95.0 °F 33.8 °F 12% 30.04 in 6.2 mi NNW 19.6 mph - N/A   Scattered Clouds
10:00 PM 94 °F 35 °F 6%  in 12 mi Calm Calm - -   Scattered Clouds
10:00 PM 93.2 °F 35.6 °F 13% 30.09 in 6.2 mi NW 8.1 mph - N/A   Partly Cloudy
11:00 PM 93.2 °F 37.4 °F 14% 30.09 in 6.2 mi WSW 12.7 mph - N/A   Partly Cloudy